Location: Le Hiès Ruisseau
(43.3000°N, 0.4500°W)
Time: 01:30:02
(UTC+00:00)

Cosmos 1844 Rocket - Pass Details

Date: 28 January 2023
Orbit: 825 x 843 km, 71.0° (Epoch: 27 March)

Event Time Altitude Azimuth Distance (km) Brightness Sun altitude
Rises 19:25:28 0° 338° (NNW) 3,375 6.1 -25.0°
Reaches altitude 10° 19:27:59 10° 343° (NNW) 2,437 5.2 -25.5°
Enters shadow 19:31:55 41° 12° (NNE) 1,182 3.3 -26.2°
